{"data":{"norad_id":56140,"epoch":"2026-05-25T04:16:24.403008Z","epoch_age_seconds":69948,"freshness":"FRESH","line1":"1 56140U 23046BA  26145.17806022  .00000651  00000+0  33173-4 0  9997","line2":"2 56140  43.0044  75.3898 0000973 255.5650 104.5094 15.27568837173893","mean_motion":15.27568837,"eccentricity":9.73e-5,"inclination_deg":43.0044,"raan_deg":75.3898,"arg_perigee_deg":255.565,"mean_anomaly_deg":104.5094,"bstar":3.3173e-5,"rev_number":17389,"period_min":94.267437585859,"perigee_km":482.41492562156,"apogee_km":483.75011894059,"semimajor_km":6861.2195222811,"source":"CELESTRAK","updated_at":"2026-05-25T13:38:17.962466Z"}}